Location: Ida Center
(41.8662°N, 83.5713°W)
Time: 12:47:59
(UTC+00:00)

Cosmos 1328 Rocket - Pass Details

Date: 17 November 2019
Orbit: 600 x 628 km, 82.5° (Epoch: 06 December)

Event Time Altitude Azimuth Distance (km) Brightness Sun altitude
Rises 23:24:06 0° 174° (S) 2,896 7.1 -13.5°
Reaches altitude 10° 23:26:22 10° 170° (S) 1,991 6.2 -13.9°
Maximum altitude 23:30:39 53° 94° (E) 771 3.7 -14.7°
Drops below altitude 10° 23:34:57 10° 18° (NNE) 1,993 5.9 -15.4°
Enters shadow 23:36:26 - 15° (NNE) 2,587 6.5 -15.7°
